status,avgMeasuredTime,avgSpeed,extID,medianMeasuredTime,TIMESTAMP,vehicleCount,_id,REPORT_ID
OK,65,30,682,65,2014-08-01T07:50:00,0,20746234,206290
OK,52,37,682,52,2014-08-01T07:55:00,1,20746406,206290
OK,42,46,682,42,2014-08-01T08:00:00,1,20746737,206290
OK,50,39,682,50,2014-08-01T08:05:00,2,20747186,206290
OK,53,36,682,53,2014-08-01T08:10:00,2,20747559,206290
OK,56,34,682,56,2014-08-01T08:15:00,2,20748008,206290
OK,64,30,682,64,2014-08-01T08:20:00,1,20748457,206290
OK,64,30,682,64,2014-08-01T08:25:00,1,20748906,206290
OK,67,29,682,67,2014-08-01T08:30:00,2,20749355,206290
OK,70,27,682,70,2014-08-01T08:35:00,0,20749804,206290
OK,64,30,682,64,2014-08-01T08:40:00,6,20750253,206290
OK,62,31,682,62,2014-08-01T08:45:00,4,20750702,206290
OK,56,34,682,56,2014-08-01T08:50:00,1,20751151,206290
OK,52,37,682,52,2014-08-01T08:55:00,2,20751600,206290
OK,49,39,682,49,2014-08-01T09:00:00,1,20752049,206290
OK,42,46,682,42,2014-08-01T09:05:00,1,20752498,206290
OK,57,34,682,57,2014-08-01T09:10:00,2,20752947,206290
OK,40,48,682,40,2014-08-01T09:15:00,1,20753396,206290
OK,43,45,682,43,2014-08-01T09:20:00,2,20753845,206290
OK,45,43,682,45,2014-08-01T09:25:00,2,20754294,206290
OK,52,37,682,52,2014-08-01T09:30:00,1,20754743,206290
OK,52,37,682,52,2014-08-01T09:35:00,1,20755192,206290
OK,52,37,682,52,2014-08-01T09:40:00,0,20755641,206290
OK,67,29,682,67,2014-08-01T09:45:00,5,20756090,206290
OK,53,36,682,53,2014-08-01T09:50:00,3,20756539,206290
OK,65,30,682,65,2014-08-01T09:55:00,0,20756988,206290
OK,65,30,682,65,2014-08-01T10:00:00,0,20757437,206290
OK,56,34,682,56,2014-08-01T10:05:00,2,20757886,206290
OK,56,34,682,56,2014-08-01T10:10:00,2,20758335,206290
OK,53,36,682,53,2014-08-01T10:15:00,1,20758784,206290
OK,47,41,682,47,2014-08-01T10:20:00,5,20759233,206290
OK,44,44,682,44,2014-08-01T10:25:00,5,20759682,206290
OK,64,30,682,64,2014-08-01T10:30:00,4,20760131,206290
OK,64,30,682,64,2014-08-01T10:35:00,2,20760580,206290
OK,45,43,682,45,2014-08-01T10:40:00,1,20761029,206290
OK,55,35,682,55,2014-08-01T10:45:00,2,20761478,206290
OK,66,29,682,66,2014-08-01T10:50:00,1,20761927,206290
OK,66,29,682,66,2014-08-01T10:55:00,2,20762376,206290
OK,58,33,682,58,2014-08-01T11:00:00,4,20762825,206290
OK,52,37,682,52,2014-08-01T11:05:00,1,20763274,206290
OK,72,27,682,72,2014-08-01T11:10:00,2,20763723,206290
OK,69,28,682,69,2014-08-01T11:15:00,1,20764172,206290
OK,49,39,682,49,2014-08-01T11:20:00,4,20764620,206290
OK,53,36,682,53,2014-08-01T11:25:00,6,20765069,206290
OK,53,36,682,53,2014-08-01T11:30:00,2,20765518,206290
OK,57,34,682,57,2014-08-01T11:35:00,3,20765967,206290
OK,55,35,682,55,2014-08-01T11:40:00,4,20766416,206290
OK,49,39,682,49,2014-08-01T11:45:00,2,20766865,206290
OK,47,41,682,47,2014-08-01T11:50:00,3,20767314,206290
OK,49,39,682,49,2014-08-01T11:55:00,2,20767763,206290
OK,64,30,682,64,2014-08-01T12:00:00,1,20768212,206290
OK,64,30,682,64,2014-08-01T12:05:00,1,20768661,206290
OK,109,17,682,109,2014-08-01T12:10:00,1,20769110,206290
OK,80,24,682,80,2014-08-01T12:15:00,3,20769559,206290
OK,74,26,682,74,2014-08-01T12:20:00,4,20770008,206290
OK,75,26,682,75,2014-08-01T12:25:00,4,20770457,206290
OK,65,30,682,65,2014-08-01T12:30:00,5,20770906,206290
OK,59,33,682,59,2014-08-01T12:35:00,5,20771355,206290
OK,65,30,682,65,2014-08-01T12:40:00,3,20771804,206290
OK,81,24,682,81,2014-08-01T12:45:00,2,20772253,206290
OK,81,24,682,81,2014-08-01T12:50:00,2,20772702,206290
OK,99,19,682,99,2014-08-01T12:55:00,1,20773151,206290
OK,88,22,682,88,2014-08-01T13:00:00,4,20773600,206290
OK,88,22,682,88,2014-08-01T13:05:00,3,20774049,206290
OK,73,26,682,73,2014-08-01T13:10:00,0,20774498,206290
OK,73,26,682,73,2014-08-01T13:15:00,0,20774947,206290
OK,74,26,682,74,2014-08-01T13:20:00,3,20775396,206290
OK,99,19,682,99,2014-08-01T13:25:00,3,20775845,206290
OK,100,19,682,100,2014-08-01T13:30:00,2,20776294,206290
OK,92,21,682,92,2014-08-01T13:35:00,3,20776743,206290
OK,90,21,682,90,2014-08-01T13:40:00,5,20777192,206290
OK,90,21,682,90,2014-08-01T13:45:00,3,20777641,206290
OK,86,22,682,86,2014-08-01T13:50:00,2,20778090,206290
OK,75,26,682,75,2014-08-01T13:55:00,3,20778539,206290
OK,79,24,682,79,2014-08-01T14:00:00,1,20778988,206290
OK,79,24,682,79,2014-08-01T14:05:00,0,20779437,206290
OK,79,24,682,79,2014-08-01T14:10:00,0,20779886,206290
OK,76,25,682,76,2014-08-01T14:15:00,2,20780335,206290
OK,76,25,682,76,2014-08-01T14:20:00,2,20780784,206290
OK,76,25,682,76,2014-08-01T14:25:00,0,20781233,206290
OK,48,40,682,48,2014-08-01T14:30:00,1,20781682,206290
OK,103,18,682,103,2014-08-01T14:35:00,1,20782131,206290
OK,87,22,682,87,2014-08-01T14:40:00,4,20782580,206290
OK,60,32,682,60,2014-08-01T14:45:00,6,20783029,206290
OK,61,31,682,61,2014-08-01T14:50:00,5,20783478,206290
OK,100,19,682,100,2014-08-01T14:55:00,3,20783927,206290
OK,74,26,682,74,2014-08-01T15:00:00,2,20784376,206290
OK,119,16,682,119,2014-08-01T15:05:00,3,20784825,206290
OK,119,16,682,119,2014-08-01T15:10:00,3,20785274,206290
OK,58,33,682,58,2014-08-01T15:15:00,1,20785723,206290
OK,58,33,682,58,2014-08-01T15:20:00,0,20786172,206290
OK,50,39,682,50,2014-08-01T15:25:00,2,20786621,206290
OK,50,39,682,50,2014-08-01T15:30:00,2,20787070,206290
OK,42,46,682,42,2014-08-01T15:35:00,1,20787519,206290
OK,42,46,682,42,2014-08-01T15:40:00,1,20787968,206290
OK,75,26,682,75,2014-08-01T15:45:00,1,20788417,206290
OK,63,30,682,63,2014-08-01T15:50:00,2,20788866,206290
OK,48,40,682,48,2014-08-01T15:55:00,1,20789315,206290
OK,59,33,682,59,2014-08-01T16:00:00,2,20789764,206290
OK,57,34,682,57,2014-08-01T16:05:00,4,20790213,206290
OK,54,36,682,54,2014-08-01T16:10:00,3,20790662,206290
OK,44,44,682,44,2014-08-01T16:15:00,2,20791111,206290
OK,42,46,682,42,2014-08-01T16:20:00,3,20791560,206290
OK,46,42,682,46,2014-08-01T16:25:00,3,20792009,206290
OK,78,25,682,78,2014-08-01T16:30:00,2,20792458,206290
OK,61,31,682,61,2014-08-01T16:35:00,2,20792907,206290
OK,59,33,682,59,2014-08-01T16:40:00,3,20793356,206290
OK,59,33,682,59,2014-08-01T16:45:00,1,20793805,206290
OK,59,33,682,59,2014-08-01T16:50:00,0,20794254,206290
OK,65,30,682,65,2014-08-01T16:55:00,1,20794703,206290
OK,44,44,682,44,2014-08-01T17:00:00,3,20795152,206290
OK,44,44,682,44,2014-08-01T17:05:00,0,20795601,206290
OK,44,44,682,44,2014-08-01T17:10:00,0,20796050,206290
OK,41,47,682,41,2014-08-01T17:15:00,2,20796499,206290
OK,42,46,682,42,2014-08-01T17:20:00,2,20796948,206290
OK,61,31,682,61,2014-08-01T17:25:00,2,20797397,206290
OK,52,37,682,52,2014-08-01T17:30:00,3,20797846,206290
OK,44,44,682,44,2014-08-01T17:35:00,1,20798295,206290
OK,44,44,682,44,2014-08-01T17:40:00,0,20798744,206290
OK,44,44,682,44,2014-08-01T17:45:00,0,20799193,206290
OK,44,44,682,44,2014-08-01T17:50:00,1,20799642,206290
OK,44,44,682,44,2014-08-01T17:55:00,1,20800091,206290
OK,44,44,682,44,2014-08-01T18:00:00,0,20800540,206290
OK,44,44,682,44,2014-08-01T18:05:00,0,20800989,206290
OK,44,44,682,44,2014-08-01T18:10:00,0,20801438,206290
OK,44,44,682,44,2014-08-01T18:15:00,0,20801887,206290
OK,44,44,682,44,2014-08-01T18:20:00,0,20802336,206290
OK,44,44,682,44,2014-08-01T18:25:00,0,20802785,206290
OK,44,44,682,44,2014-08-01T18:30:00,0,20803234,206290
OK,44,44,682,44,2014-08-01T18:35:00,0,20803683,206290
OK,41,47,682,41,2014-08-01T18:40:00,1,20804132,206290
OK,61,31,682,61,2014-08-01T18:45:00,3,20804581,206290
OK,61,31,682,61,2014-08-01T18:50:00,2,20805030,206290
OK,61,31,682,61,2014-08-01T18:55:00,0,20805479,206290
OK,61,31,682,61,2014-08-01T19:00:00,0,20805928,206290
OK,61,31,682,61,2014-08-01T19:05:00,0,20806377,206290
OK,61,31,682,61,2014-08-01T19:10:00,0,20806826,206290
OK,61,31,682,61,2014-08-01T19:15:00,0,20807275,206290
OK,61,31,682,61,2014-08-01T19:20:00,0,20807724,206290
OK,57,34,682,57,2014-08-01T19:25:00,1,20808173,206290
OK,57,34,682,57,2014-08-01T19:30:00,1,20808622,206290
OK,57,34,682,57,2014-08-01T19:35:00,0,20809071,206290
OK,43,45,682,43,2014-08-01T19:40:00,1,20809520,206290
OK,43,45,682,43,2014-08-01T19:45:00,1,20809969,206290
OK,43,45,682,43,2014-08-01T19:50:00,0,20810418,206290
OK,43,45,682,43,2014-08-01T19:55:00,0,20810867,206290
OK,43,45,682,43,2014-08-01T20:00:00,0,20811313,206290
OK,43,45,682,43,2014-08-01T20:05:00,0,20811486,206290
OK,47,41,682,47,2014-08-01T20:10:00,1,20811689,206290
OK,47,41,682,47,2014-08-01T20:15:00,1,20811895,206290
OK,47,41,682,47,2014-08-01T20:20:00,0,20812104,206290
OK,63,30,682,63,2014-08-01T20:25:00,1,20812323,206290
OK,63,30,682,63,2014-08-01T20:30:00,1,20812537,206290
OK,63,30,682,63,2014-08-01T20:35:00,0,20812746,206290
OK,128,15,682,128,2014-08-01T20:40:00,1,20812948,206290
OK,128,15,682,128,2014-08-01T20:45:00,1,20813155,206290
OK,128,15,682,128,2014-08-01T20:50:00,0,20813366,206290
OK,67,29,682,67,2014-08-01T20:55:00,1,20813596,206290
OK,67,29,682,67,2014-08-01T21:00:00,1,20813834,206290
OK,48,40,682,48,2014-08-01T21:05:00,0,20814011,206290
OK,58,33,682,58,2014-08-01T21:10:00,1,20814250,206290
OK,58,33,682,58,2014-08-01T21:15:00,0,20814446,206290
OK,58,33,682,58,2014-08-01T21:20:00,0,20814653,206290
OK,58,33,682,58,2014-08-01T21:25:00,0,20814882,206290
OK,58,33,682,58,2014-08-01T21:30:00,0,20815158,206290
OK,58,33,682,58,2014-08-01T21:35:00,0,20815391,206290
OK,58,33,682,58,2014-08-01T21:40:00,0,20815615,206290
OK,58,33,682,58,2014-08-01T21:45:00,0,20815852,206290
OK,58,33,682,58,2014-08-01T21:50:00,0,20816093,206290
OK,58,33,682,58,2014-08-01T21:55:00,0,20816328,206290
OK,58,33,682,58,2014-08-01T22:00:00,0,20816596,206290
OK,58,33,682,58,2014-08-01T22:05:00,0,20817045,206290
OK,58,33,682,58,2014-08-01T22:10:00,0,20817367,206290
OK,58,33,682,58,2014-08-01T22:15:00,0,20817796,206290
OK,58,33,682,58,2014-08-01T22:20:00,0,20818086,206290
OK,58,33,682,58,2014-08-01T22:25:00,0,20818402,206290
OK,58,33,682,58,2014-08-01T22:30:00,0,20818736,206290
OK,58,33,682,58,2014-08-01T22:35:00,0,20819038,206290
OK,58,33,682,58,2014-08-01T22:40:00,0,20819220,206290
OK,58,33,682,58,2014-08-01T22:45:00,0,20819508,206290
OK,58,33,682,58,2014-08-01T22:50:00,0,20819743,206290
OK,58,33,682,58,2014-08-01T22:55:00,0,20819996,206290
OK,58,33,682,58,2014-08-01T23:00:00,0,20820172,206290
OK,58,33,682,58,2014-08-01T23:05:00,0,20820425,206290
OK,58,33,682,58,2014-08-01T23:10:00,0,20820655,206290
OK,58,33,682,58,2014-08-01T23:15:00,0,20820843,206290
OK,58,33,682,58,2014-08-01T23:20:00,0,20821093,206290
OK,58,33,682,58,2014-08-01T23:25:00,0,20821271,206290
OK,58,33,682,58,2014-08-01T23:30:00,0,20821497,206290
OK,58,33,682,58,2014-08-01T23:35:00,0,20821742,206290
OK,58,33,682,58,2014-08-01T23:40:00,0,20821921,206290
OK,58,33,682,58,2014-08-01T23:45:00,0,20822144,206290
OK,58,33,682,58,2014-08-01T23:50:00,0,20822411,206290
OK,58,33,682,58,2014-08-01T23:55:00,0,20822737,206290
OK,58,33,682,58,2014-08-02T00:00:00,0,20823035,206290
OK,58,33,682,58,2014-08-02T00:05:00,0,20823484,206290
OK,58,33,682,58,2014-08-02T00:10:00,0,20823933,206290
OK,58,33,682,58,2014-08-02T00:15:00,0,20824382,206290
OK,58,33,682,58,2014-08-02T00:20:00,0,20824831,206290
OK,58,33,682,58,2014-08-02T00:25:00,0,20825280,206290
OK,58,33,682,58,2014-08-02T00:30:00,0,20825729,206290
OK,58,33,682,58,2014-08-02T00:35:00,0,20826178,206290
OK,58,33,682,58,2014-08-02T00:40:00,0,20826627,206290
OK,58,33,682,58,2014-08-02T00:45:00,0,20827076,206290
OK,58,33,682,58,2014-08-02T00:50:00,0,20827525,206290
OK,58,33,682,58,2014-08-02T00:55:00,0,20827974,206290
OK,58,33,682,58,2014-08-02T01:00:00,0,20828423,206290
OK,58,33,682,58,2014-08-02T01:05:00,0,20828872,206290
OK,58,33,682,58,2014-08-02T01:10:00,0,20829321,206290
OK,58,33,682,58,2014-08-02T01:15:00,0,20829770,206290
OK,58,33,682,58,2014-08-02T01:20:00,0,20830219,206290
OK,58,33,682,58,2014-08-02T01:25:00,0,20830668,206290
OK,58,33,682,58,2014-08-02T01:30:00,0,20831117,206290
OK,58,33,682,58,2014-08-02T01:35:00,0,20831566,206290
OK,58,33,682,58,2014-08-02T01:40:00,0,20832015,206290
OK,58,33,682,58,2014-08-02T01:45:00,0,20832464,206290
OK,58,33,682,58,2014-08-02T01:50:00,0,20832913,206290
OK,58,33,682,58,2014-08-02T01:55:00,0,20833362,206290
OK,58,33,682,58,2014-08-02T02:00:00,0,20833811,206290
OK,58,33,682,58,2014-08-02T02:05:00,0,20834260,206290
OK,58,33,682,58,2014-08-02T02:10:00,0,20834709,206290
OK,58,33,682,58,2014-08-02T02:15:00,0,20835158,206290
OK,58,33,682,58,2014-08-02T02:20:00,0,20835607,206290
OK,58,33,682,58,2014-08-02T02:25:00,0,20836056,206290
OK,58,33,682,58,2014-08-02T02:30:00,0,20836505,206290
OK,58,33,682,58,2014-08-02T02:35:00,0,20836954,206290
OK,58,33,682,58,2014-08-02T02:40:00,0,20837403,206290
OK,58,33,682,58,2014-08-02T02:45:00,0,20837852,206290
OK,58,33,682,58,2014-08-02T02:50:00,0,20838301,206290
OK,58,33,682,58,2014-08-02T02:55:00,0,20838750,206290
OK,58,33,682,58,2014-08-02T03:00:00,0,20839199,206290
OK,58,33,682,58,2014-08-02T03:05:00,0,20839648,206290
OK,58,33,682,58,2014-08-02T03:10:00,0,20840097,206290
OK,58,33,682,58,2014-08-02T03:15:00,0,20840546,206290
OK,58,33,682,58,2014-08-02T03:20:00,0,20840995,206290
OK,58,33,682,58,2014-08-02T03:25:00,0,20841444,206290
OK,58,33,682,58,2014-08-02T03:30:00,0,20841893,206290
OK,58,33,682,58,2014-08-02T03:35:00,0,20842342,206290
OK,58,33,682,58,2014-08-02T03:40:00,0,20842791,206290
OK,58,33,682,58,2014-08-02T03:45:00,0,20843240,206290
OK,58,33,682,58,2014-08-02T03:50:00,0,20843689,206290
OK,58,33,682,58,2014-08-02T03:55:00,0,20844138,206290
OK,58,33,682,58,2014-08-02T04:00:00,0,20844587,206290
OK,58,33,682,58,2014-08-02T04:05:00,0,20844718,206290
OK,58,33,682,58,2014-08-02T04:10:00,0,20845048,206290
OK,58,33,682,58,2014-08-02T04:15:00,0,20845228,206290
OK,58,33,682,58,2014-08-02T04:20:00,0,20845584,206290
OK,58,33,682,58,2014-08-02T04:25:00,0,20845952,206290
OK,58,33,682,58,2014-08-02T04:30:00,0,20846140,206290
OK,58,33,682,58,2014-08-02T04:35:00,0,20846507,206290
OK,58,33,682,58,2014-08-02T04:40:00,0,20846890,206290
OK,58,33,682,58,2014-08-02T04:45:00,0,20847149,206290
OK,58,33,682,58,2014-08-02T04:50:00,0,20847515,206290
OK,58,33,682,58,2014-08-02T04:55:00,0,20847872,206290
OK,58,33,682,58,2014-08-02T05:00:00,0,20848232,206290
OK,58,33,682,58,2014-08-02T05:05:00,0,20848396,206290
OK,58,33,682,58,2014-08-02T05:10:00,0,20848750,206290
OK,58,33,682,58,2014-08-02T05:15:00,0,20848942,206290
OK,58,33,682,58,2014-08-02T05:20:00,0,20849286,206290
OK,58,33,682,58,2014-08-02T05:30:00,0,20849811,206290
OK,36,54,682,36,2014-08-02T05:35:00,1,20850083,206290
OK,36,54,682,36,2014-08-02T05:40:00,1,20850376,206290
OK,36,54,682,36,2014-08-02T05:45:00,0,20850677,206290
OK,36,54,682,36,2014-08-02T05:50:00,0,20851035,206290
OK,36,54,682,36,2014-08-02T05:55:00,0,20851289,206290
OK,36,54,682,36,2014-08-02T06:00:00,0,20851592,206290
OK,39,50,682,39,2014-08-02T06:05:00,1,20852041,206290
OK,39,50,682,39,2014-08-02T06:10:00,1,20852490,206290
OK,39,50,682,39,2014-08-02T06:15:00,0,20852939,206290
OK,54,36,682,54,2014-08-02T06:20:00,1,20853388,206290
OK,54,36,682,54,2014-08-02T06:25:00,1,20853837,206290
OK,54,36,682,54,2014-08-02T06:30:00,0,20854286,206290
OK,54,36,682,54,2014-08-02T06:35:00,0,20854735,206290
OK,54,36,682,54,2014-08-02T06:40:00,0,20855184,206290
OK,63,30,682,63,2014-08-02T06:45:00,1,20855633,206290
OK,63,30,682,63,2014-08-02T06:50:00,0,20856082,206290
OK,39,50,682,39,2014-08-02T06:55:00,1,20856531,206290
OK,66,29,682,66,2014-08-02T07:00:00,1,20856980,206290
OK,66,29,682,66,2014-08-02T07:05:00,0,20857429,206290
OK,66,29,682,66,2014-08-02T07:10:00,0,20857878,206290
OK,66,29,682,66,2014-08-02T07:15:00,0,20858327,206290
OK,66,29,682,66,2014-08-02T07:20:00,0,20858776,206290
OK,66,29,682,66,2014-08-02T07:25:00,0,20859225,206290
OK,66,29,682,66,2014-08-02T07:30:00,0,20859674,206290
OK,66,29,682,66,2014-08-02T07:35:00,0,20860123,206290
OK,52,37,682,52,2014-08-02T07:40:00,2,20860572,206290
OK,53,36,682,53,2014-08-02T07:45:00,3,20861021,206290
OK,53,36,682,53,2014-08-02T07:50:00,1,20861470,206290
OK,53,36,682,53,2014-08-02T07:55:00,0,20861919,206290
OK,72,27,682,72,2014-08-02T08:00:00,1,20862368,206290
OK,53,36,682,53,2014-08-02T08:05:00,1,20862817,206290
OK,52,37,682,52,2014-08-02T08:10:00,2,20863266,206290
OK,45,43,682,45,2014-08-02T08:15:00,3,20863715,206290
OK,39,50,682,39,2014-08-02T08:20:00,1,20864164,206290
OK,39,50,682,39,2014-08-02T08:25:00,0,20864613,206290
OK,44,44,682,44,2014-08-02T08:30:00,2,20865062,206290
OK,44,44,682,44,2014-08-02T08:35:00,2,20865511,206290
OK,58,33,682,58,2014-08-02T08:40:00,1,20865960,206290
OK,66,29,682,66,2014-08-02T08:45:00,2,20866409,206290
OK,74,26,682,74,2014-08-02T08:50:00,2,20866858,206290
OK,55,35,682,55,2014-08-02T08:55:00,2,20867307,206290
OK,51,38,682,51,2014-08-02T09:00:00,4,20867756,206290
OK,58,33,682,58,2014-08-02T09:05:00,3,20868205,206290
OK,58,33,682,58,2014-08-02T09:10:00,0,20868654,206290
OK,78,25,682,78,2014-08-02T09:15:00,1,20869103,206290
OK,78,25,682,78,2014-08-02T09:20:00,1,20869552,206290
OK,54,36,682,54,2014-08-02T09:25:00,1,20870001,206290
OK,54,36,682,54,2014-08-02T09:30:00,0,20870450,206290
OK,67,29,682,67,2014-08-02T09:35:00,1,20870899,206290
OK,54,36,682,54,2014-08-02T09:40:00,2,20871348,206290
OK,45,43,682,45,2014-08-02T09:45:00,2,20871797,206290
OK,49,39,682,49,2014-08-02T09:50:00,2,20872246,206290
OK,51,38,682,51,2014-08-02T09:55:00,1,20872695,206290
OK,48,40,682,48,2014-08-02T10:00:00,1,20873144,206290
OK,64,30,682,64,2014-08-02T10:05:00,2,20873593,206290
OK,70,27,682,70,2014-08-02T10:10:00,4,20874042,206290
OK,70,27,682,70,2014-08-02T10:15:00,4,20874491,206290
OK,46,42,682,46,2014-08-02T10:20:00,2,20874940,206290
OK,55,35,682,55,2014-08-02T10:25:00,2,20875389,206290
OK,51,38,682,51,2014-08-02T10:30:00,1,20875838,206290
OK,47,41,682,47,2014-08-02T10:35:00,3,20876287,206290
OK,45,43,682,45,2014-08-02T10:40:00,5,20876736,206290
OK,45,43,682,45,2014-08-02T10:45:00,3,20877185,206290
OK,65,30,682,65,2014-08-02T10:50:00,4,20877634,206290
OK,71,27,682,71,2014-08-02T10:55:00,3,20878083,206290
OK,62,31,682,62,2014-08-02T11:00:00,3,20878532,206290
OK,42,46,682,42,2014-08-02T11:05:00,3,20878981,206290
OK,42,46,682,42,2014-08-02T11:10:00,3,20879430,206290
OK,47,41,682,47,2014-08-02T11:15:00,2,20879879,206290
OK,48,40,682,48,2014-08-02T11:20:00,2,20880328,206290
OK,61,31,682,61,2014-08-02T11:25:00,2,20880777,206290
OK,76,25,682,76,2014-08-02T11:30:00,3,20881226,206290
OK,62,31,682,62,2014-08-02T11:35:00,2,20881675,206290
OK,50,39,682,50,2014-08-02T11:40:00,3,20882124,206290
OK,54,36,682,54,2014-08-02T11:45:00,4,20882573,206290
OK,77,25,682,77,2014-08-02T11:50:00,1,20883022,206290
OK,77,25,682,77,2014-08-02T11:55:00,0,20883471,206290
OK,53,36,682,53,2014-08-02T12:00:00,2,20883920,206290
OK,53,36,682,53,2014-08-02T12:05:00,2,20884369,206290
OK,56,34,682,56,2014-08-02T12:10:00,0,20884818,206290
OK,65,30,682,65,2014-08-02T12:15:00,1,20885267,206290
OK,65,30,682,65,2014-08-02T12:20:00,0,20885716,206290
OK,65,30,682,65,2014-08-02T12:25:00,0,20886165,206290
OK,50,39,682,50,2014-08-02T12:30:00,2,20886614,206290
OK,50,39,682,50,2014-08-02T12:35:00,0,20887063,206290
OK,59,33,682,59,2014-08-02T12:40:00,2,20887512,206290
OK,59,33,682,59,2014-08-02T12:45:00,2,20887961,206290
OK,59,33,682,59,2014-08-02T12:50:00,0,20888410,206290
OK,59,33,682,59,2014-08-02T12:55:00,0,20888859,206290
OK,64,30,682,64,2014-08-02T13:00:00,2,20889308,206290
OK,64,30,682,64,2014-08-02T13:05:00,0,20889757,206290
OK,64,30,682,64,2014-08-02T13:10:00,0,20890206,206290
OK,48,40,682,48,2014-08-02T13:15:00,3,20890655,206290
OK,48,40,682,48,2014-08-02T13:20:00,3,20891104,206290
OK,76,25,682,76,2014-08-02T13:25:00,0,20891553,206290
OK,57,34,682,57,2014-08-02T13:30:00,3,20892002,206290
OK,59,33,682,59,2014-08-02T13:35:00,4,20892451,206290
OK,55,35,682,55,2014-08-02T13:40:00,1,20892900,206290
OK,45,43,682,45,2014-08-02T13:45:00,1,20893349,206290
OK,42,46,682,42,2014-08-02T13:50:00,2,20893798,206290
OK,39,50,682,39,2014-08-02T13:55:00,0,20894247,206290
OK,39,50,682,39,2014-08-02T14:00:00,0,20894696,206290
OK,58,33,682,58,2014-08-02T14:05:00,1,20895145,206290
OK,58,33,682,58,2014-08-02T14:10:00,0,20895594,206290
OK,62,31,682,62,2014-08-02T14:15:00,1,20896043,206290
OK,62,31,682,62,2014-08-02T14:20:00,0,20896492,206290
OK,41,47,682,41,2014-08-02T14:25:00,2,20896941,206290
OK,41,47,682,41,2014-08-02T14:30:00,1,20897390,206290
OK,46,42,682,46,2014-08-02T14:35:00,2,20897839,206290
OK,46,42,682,46,2014-08-02T14:40:00,2,20898288,206290
OK,39,50,682,39,2014-08-02T14:45:00,1,20898737,206290
OK,53,36,682,53,2014-08-02T14:50:00,2,20899186,206290
OK,66,29,682,66,2014-08-02T14:55:00,3,20899635,206290
OK,66,29,682,66,2014-08-02T15:00:00,1,20900084,206290
OK,76,25,682,76,2014-08-02T15:05:00,1,20900533,206290
OK,76,25,682,76,2014-08-02T15:10:00,1,20900982,206290
OK,44,44,682,44,2014-08-02T15:15:00,1,20901431,206290
OK,46,42,682,46,2014-08-02T15:20:00,2,20901880,206290
OK,49,39,682,49,2014-08-02T15:25:00,1,20902329,206290
OK,82,23,682,82,2014-08-02T15:30:00,2,20902778,206290
OK,42,46,682,42,2014-08-02T15:35:00,1,20903227,206290
OK,40,48,682,40,2014-08-02T15:40:00,2,20903676,206290
OK,39,50,682,39,2014-08-02T15:45:00,0,20904125,206290
OK,68,28,682,68,2014-08-02T15:50:00,2,20904574,206290
OK,68,28,682,68,2014-08-02T15:55:00,2,20905023,206290
OK,76,25,682,76,2014-08-02T16:00:00,0,20905472,206290
OK,76,25,682,76,2014-08-02T16:05:00,0,20905921,206290
OK,59,33,682,59,2014-08-02T16:10:00,2,20906370,206290
OK,62,31,682,62,2014-08-02T16:15:00,3,20906819,206290
OK,52,37,682,52,2014-08-02T16:20:00,2,20907268,206290
OK,42,46,682,42,2014-08-02T16:25:00,0,20907717,206290
OK,47,41,682,47,2014-08-02T16:30:00,1,20908166,206290
OK,68,28,682,68,2014-08-02T16:35:00,2,20908615,206290
OK,68,28,682,68,2014-08-02T16:40:00,2,20909064,206290
OK,65,30,682,65,2014-08-02T16:45:00,2,20909513,206290
OK,65,30,682,65,2014-08-02T16:50:00,2,20909962,206290
OK,66,29,682,66,2014-08-02T16:55:00,0,20910411,206290
OK,66,29,682,66,2014-08-02T17:00:00,0,20910860,206290
OK,66,29,682,66,2014-08-02T17:05:00,0,20911309,206290
OK,66,29,682,66,2014-08-02T17:10:00,0,20911758,206290
OK,66,29,682,66,2014-08-02T17:15:00,0,20912207,206290
OK,66,29,682,66,2014-08-02T17:20:00,0,20912656,206290
OK,66,29,682,66,2014-08-02T17:25:00,0,20913105,206290
OK,66,29,682,66,2014-08-02T17:30:00,0,20913554,206290
OK,37,52,682,37,2014-08-02T17:35:00,1,20914003,206290
OK,48,40,682,48,2014-08-02T17:40:00,2,20914452,206290
OK,48,40,682,48,2014-08-02T17:45:00,2,20914901,206290
OK,48,40,682,48,2014-08-02T17:50:00,0,20915350,206290
OK,48,40,682,48,2014-08-02T17:55:00,0,20915799,206290
OK,48,40,682,48,2014-08-02T18:00:00,0,20916248,206290
OK,48,40,682,48,2014-08-02T18:05:00,0,20916697,206290
OK,48,40,682,48,2014-08-02T18:10:00,0,20917146,206290
OK,48,40,682,48,2014-08-02T18:15:00,0,20917595,206290
OK,48,40,682,48,2014-08-02T18:20:00,0,20918044,206290
OK,48,40,682,48,2014-08-02T18:25:00,0,20918493,206290
OK,48,40,682,48,2014-08-02T18:30:00,0,20918942,206290
OK,55,35,682,55,2014-08-02T18:35:00,1,20919391,206290
OK,55,35,682,55,2014-08-02T18:40:00,1,20919840,206290
OK,55,35,682,55,2014-08-02T18:45:00,0,20920289,206290
OK,55,35,682,55,2014-08-02T18:50:00,0,20920738,206290
OK,55,35,682,55,2014-08-02T18:55:00,0,20921187,206290
OK,55,35,682,55,2014-08-02T19:00:00,0,20921636,206290
OK,55,35,682,55,2014-08-02T19:05:00,0,20922085,206290
OK,55,35,682,55,2014-08-02T19:10:00,0,20922534,206290
OK,73,26,682,73,2014-08-02T19:15:00,0,20922983,206290
OK,44,44,682,44,2014-08-02T19:20:00,1,20923432,206290
OK,44,44,682,44,2014-08-02T19:25:00,0,20923881,206290
OK,44,44,682,44,2014-08-02T19:30:00,0,20924330,206290
OK,46,42,682,46,2014-08-02T19:35:00,1,20924779,206290
OK,46,42,682,46,2014-08-02T19:40:00,0,20925228,206290
OK,46,42,682,46,2014-08-02T19:45:00,0,20925677,206290
OK,46,42,682,46,2014-08-02T19:50:00,0,20926126,206290
OK,46,42,682,46,2014-08-02T19:55:00,0,20926575,206290
OK,46,42,682,46,2014-08-02T20:00:00,0,20927024,206290